STARLINK-2742, 48688

Orbit data source: Space-Track

STARLINK-2742, 48688 is a payload satellite owned by SpaceX/Seattle (US) in LEO that was launched on Wed, 26 May 2021 UTC via an FALCON 9 launch vehicle from the Air Force Eastern Test Range (AFETR). Payload-class satellites include a variety of spacecraft equipped with specific instruments for various scientific and technological missions. These include communications satellites like Starlink; space stations such as the ISS; scientific satellites like the Hubble; Earth observation satellites from companies like Planet Labs, Umbra, and HawkEye 360; GPS; miniature CubeSats for education and research; and military/defense satellites.

Loading next visibility...
Identifier
48688, 2021-044BC
Orbit
LEO
Country
Flag of USUS
Related business
Manufacturer
SpaceX/Seattle
Mission
Operational Commercial Communications
Bus & Motor
STARLINK, Unknown motor
Mass
260 kg wet, ~248 kg dry
Launch date (UTC)
2021-05-26 (5 years ago)
Launch vehicle
FALCON 9
Launch site
Air Force Eastern Test Range (AFETR)
Object type
Payload
Rocket body
Debris
Shape & HBR
Box + 1 Pan, 10.1 m
Radar Cross Section
13.562 m², Large (>1 m²)

Expand to show TLE details & history
Last TLE update: 1 day ago

TLE from 1 day ago
0 STARLINK-2742
1 48688U 21044BC  25348.69615259  .00006924  00000-0  48329-3 0  9990
2 48688  53.0534  88.1689 0001516  71.2135 288.9018 15.06397329251669
Epoch: 2025-12-14T16:42Z
TLE epoch observation values (Epoch: 2025-12-14T16:42:27.583Z)
Latitude
-0.00007°
Longitude
113.94856°
Altitude
547.759 km
Speed
7.59 km/s
True Right ascension
05h 52m 40s
True Declination
0° 00' 00"
Sunlit
Object was in full shadow at epoch
Visualization orbit readout
Latitude
Unknown
Longitude
Unknown
Altitude
Unknown
Speed
Unknown
Apparent Right ascension
Unknown
Apparent Declination
Unknown
Sunlit
N/A
Visualization observer readout
Local Sidereal Time
17:04:32
Azimuth
Unknown
Elevation
Unknown
Doppler factor
Unknown
Orbital elements
Apogee altitude
548.541 km
Perigee altitude
546.441 km
Semi-major axis
6,925.628 km
Eccentricity
0.00015
Inclination
53.0534°
RAAN
88.1689°
Arg. of periapsis
71.2135°
True anomaly
288.88536°
Mean anomaly
288.9018°
Eccentric anomaly
288.89358°
Mean motion
3.76578 °/min
Orbital period
95.6 mins
BSTAR
0.00048329
Loading maneuver chart data...
Computing Atmospheric mass density...
Loading historical data...
Loading historical data...
Loading historical data...
Loading historical data...
Loading historical data...
Loading historical data...
Loading historical data...

Documentation

Showing up to 5 results
|